Карточка аэропорта USHH

Внимание!
Информация на этой странице в стадии наполнения.
Если вы не увидели какой-то информации, или заметили неточность - пожалуйста сообщите нам!
Спасибо!
Команда RU-STAFF
Название аэропортаХанты-Мансийск
Название аэропорта (англ.)Khanty-Mansiysk
Превышение141 ft. (43 m.)
Координаты61°1.7039999999999', 69°5.1599999999999'
Высота перехода3000ft
Эшелон переходаQNH>=1013hPa:FL040; QNH>=977hPa:FL050; QNH<=977hPa:FL060
Коды ответчика5150-5177
Зона ОрВДТюмень РПИ (USTV)
Данные METARUSHH 250700Z 36003MPS 310V060 9999 -SHRA BKN009CB 13/12 Q1006 R06/290050 TEMPO 2000 SHRA BKN005CB
Проноз погоды (TAF)USHH 250448Z 2506/2606 02003G12MPS 9999 BKN011CB TEMPO 2506/2515 02005G14MPS 5000 -SHRA BR SCT004 OVC009CB BECMG 2515/2517 35003G12MPS BKN016CB TEMPO 2517/2524 5000 BR MIFG SCT003 OVC016
NOTAMshow/hide NOTAM
AWOS   TABLE

Информация о ВПП

ВПП Длина ВПП (м.) Покрытие Курс ВПП Частота ILS
242800Асфальтобетон238110.1
062800Асфальтобетон58111.9

Диспетчерские позиции

Позывной Наименование органа УВД Частота
USHH_R_APPХантым-Круг120.4
USHH_TWRХантым-Вышка118.1



Спутниковое изображение